Wind_Speed
8 14 10 9 8 5 5 5 4 5 5 13 9 8 6 7 8 10 10 12 13 13 16 19 24 28 27 28 29 29 28 31 31 27 25 22 19 14 2 2 7 19 32 37
5 4 3 14 10 6 4 3 7 2 8 8 6 6 4 6 6 9 11 12 12 14 19 18 22 24 25 26 29 29 27 28 28 27 25 25 21 18 14 6 4 1 14 34
5 6 9 4 5 6 4 4 5 4 8 1 5 6 5 4 5 6 8 8 10 11 14 17 20 23 24 24 27 27 27 27 28 29 27 24 22 21 21 18 9 4 4 9
4 7 4 5 3 3 6 9 9 10 7 7 7 5 7 5 4 6 4 6 9 12 15 13 17 20 20 22 24 23 26 27 29 30 28 26 25 23 22 20 18 16 16 9
1 2 8 2 4 5 6 8 5 7 8 5 3 4 6 3 4 3 4 8 10 11 13 14 17 18 19 21 21 21 23 25 29 28 27 27 26 23 21 22 25 24 22 22
2 0 4 5 3 5 4 4 6 8 7 5 2 3 4 3 2 5 6 8 9 12 11 13 16 16 16 19 20 22 24 22 23 25 27 27 25 23 20 21 24 23 25 27
5 4 9 6 7 5 5 5 6 7 7 5 5 6 3 2 5 5 4 6 7 9 8 9 13 14 14 15 18 20 20 20 21 24 24 24 24 23 21 20 22 23 23 27
2 1 8 6 4 7 6 3 4 6 7 6 7 6 6 5 5 6 6 6 6 7 8 9 11 13 14 16 18 18 18 19 20 21 20 23 24 25 24 21 24 23 21 22
9 7 2 12 7 8 4 5 5 4 6 7 5 5 5 5 6 8 7 7 6 6 8 7 8 11 12 14 18 18 17 18 19 19 19 20 24 26 23 23 22 20 19 19
3 5 8 11 12 4 7 8 5 4 4 4 6 5 6 5 7 9 9 8 8 7 7 9 8 8 9 11 13 14 15 17 17 20 19 17 16 22 23 20 18 19 17 18
7 11 6 7 7 9 4 4 4 3 5 6 4 6 5 4 10 12 12 12 10 10 10 11 10 10 9 10 10 11 12 12 14 15 17 17 13 15 18 20 21 19 17 19
8 8 5 6 3 2 4 6 9 6 3 8 11 8 8 11 15 14 13 12 13 13 12 11 10 12 10 9 9 9 9 9 11 13 13 13 15 13 11 13 15 16 16 17
4 4 4 5 6 5 4 5 7 8 13 4 7 15 14 13 15 13 15 14 15 14 12 11 12 12 8 7 7 6 5 7 9 9 9 11 12 14 13 13 10 13 14 13
3 2 7 3 5 3 7 1 2 5 6 8 12 12 13 15 16 15 16 17 12 12 12 11 11 11 6 5 4 4 4 4 6 6 7 8 8 9 10 10 12 15 12 12
9 11 5 1 3 3 3 2 2 4 4 8 11 14 13 15 17 19 17 14 13 13 14 12 10 7 5 4 4 5 6 5 3 4 4 5 6 7 7 8 9 11 12 10
0 2 3 6 7 5 4 2 3 5 4 8 10 11 14 15 18 18 16 13 13 16 13 11 11 5 6 4 4 5 5 5 5 4 6 5 4 5 5 7 7 7 9 9
2 5 4 5 8 6 11 6 9 6 6 8 12 13 10 11 12 14 17 17 18 18 15 13 12 7 8 7 7 7 7 5 4 7 6 8 7 6 6 6 7 7 6 7
13 4 6 5 5 6 7 12 13 12 10 11 10 9 9 9 13 14 12 10 14 17 17 16 13 11 11 10 10 9 9 8 7 7 6 7 7 6 7 8 8 8 8 6
14 12 13 13 12 8 9 11 12 11 9 8 9 10 10 10 11 12 9 7 9 12 14 12 12 13 13 11 10 12 12 11 12 12 11 11 11 10 10 9 9 9 9 8
8 11 13 14 13 12 11 10 9 9 8 7 7 8 8 8 7 7 5 9 10 10 7 7 9 11 12 13 12 14 14 14 14 14 13 12 12 12 11 10 11 11 10 10
9 11 12 14 14 14 13 11 10 10 7 6 6 6 5 5 4 4 3 3 3 3 5 6 8 10 12 15 15 15 16 17 16 15 15 14 13 14 14 13 12 12 11 11
9 10 12 15 14 14 13 12 10 8 7 7 7 7 7 8 7 7 7 9 9 8 8 10 12 13 13 14 16 18 19 19 19 20 19 18 17 17 16 16 16 15 16 15
10 13 14 15 16 15 11 10 10 8 8 8 8 7 7 7 7 6 8 7 7 9 10 11 11 12 14 16 18 19 20 21 22 22 21 19 18 18 18 19 17 15 13 13
8 11 14 12 12 11 10 9 9 8 8 6 6 7 7 8 7 7 8 9 9 11 12 13 13 13 15 17 17 14 13 13 13 14 15 15 17 16 15 15 16 16 16 14
9 10 11 14 14 10 9 8 7 7 6 6 6 6 6 6 9 8 9 10 11 12 14 14 14 15 6 5 7 10 12 13 14 16 17 18 18 19 19 19 19 19 19 20
9 13 14 14 13 11 10 9 8 7 6 5 4 4 5 6 7 8 10 11 11 11 13 14 15 16 19 20 19 19 19 19 18 19 20 21 21 22 22 22 22 22 22 22
7 8 10 9 9 9 9 9 9 7 5 4 5 4 5 6 6 8 10 12 14 14 15 16 16 17 18 19 20 20 20 20 19 20 21 21 22 22 23 23 23 22 22 22
Wind_Direction
249 266 266 246 254 186 175 208 169 253 233 281 284 276 279 295 325 340 347 354 359 357 355 5 5 359 357 359 3 8 9 15 9 25 26 28 24 39 110 195 220 212 206 205
292 294 330 292 290 174 194 213 277 266 280 227 264 276 282 306 321 335 343 349 354 357 354 360 6 349 352 355 4 10 12 15 10 19 22 30 27 25 38 26 346 224 212 204
273 318 311 313 208 197 221 201 177 235 236 262 294 294 282 300 305 319 326 343 346 350 347 355 1 346 350 357 6 10 10 11 15 19 17 26 31 34 42 52 64 100 235 189
279 334 3 241 207 198 220 251 222 263 264 238 251 257 273 242 236 296 303 317 334 349 342 355 356 354 351 11 10 5 10 9 14 22 16 20 34 35 42 47 61 78 83 100
360 215 287 287 201 194 167 286 221 224 257 251 271 333 301 215 201 252 259 306 329 348 351 359 3 360 357 10 13 7 6 8 10 21 13 20 26 31 38 42 61 59 67 75
103 314 258 235 184 127 114 281 211 203 232 228 99 334 262 218 271 288 299 321 330 349 353 358 7 4 6 8 9 5 3 4 6 19 20 20 22 29 41 54 57 59 64 65
211 244 280 234 145 147 83 246 193 193 225 200 189 210 222 248 284 281 286 318 332 344 349 356 9 10 11 11 9 9 15 10 10 13 23 26 29 33 41 47 61 58 49 56
140 308 289 145 85 162 215 269 197 200 220 223 234 253 254 259 257 274 290 313 326 329 343 355 10 11 10 9 10 16 20 20 15 17 18 27 34 30 38 44 44 42 40 39
186 220 215 197 203 224 152 184 228 183 229 216 230 246 239 248 257 262 274 294 306 312 328 347 4 2 2 360 5 13 20 20 18 27 24 17 29 31 29 38 41 33 33 30
33 267 234 222 243 233 199 215 212 230 208 190 221 233 244 243 246 256 265 276 292 299 311 322 335 347 347 353 1 6 15 20 16 19 20 26 20 30 25 30 42 39 32 30
264 280 283 255 228 249 258 226 220 230 217 225 201 247 225 238 249 250 262 269 270 277 290 303 312 327 340 342 354 359 4 13 21 14 23 21 23 14 27 35 35 39 49 36
224 227 171 235 234 208 221 226 225 190 256 238 223 242 232 245 252 259 256 263 262 268 279 295 303 317 327 330 336 345 351 357 12 11 19 19 23 17 23 26 30 36 43 40
236 196 211 255 260 211 216 234 228 207 226 233 257 249 248 253 258 258 261 261 257 262 274 281 294 302 318 315 319 327 329 344 346 1 11 14 21 21 6 8 17 23 25 27
190 90 295 201 242 237 215 236 223 232 246 252 267 269 258 254 261 249 247 255 264 264 268 273 281 291 303 293 311 320 321 328 320 343 0 8 10 10 15 10 3 2 13 20
232 213 227 235 306 265 214 225 244 264 273 275 264 259 257 252 255 255 259 259 258 259 264 263 264 275 262 282 303 311 308 313 322 322 335 351 336 338 353 11 9 5 11 21
235 192 168 229 255 253 218 223 232 253 234 263 265 269 270 268 266 265 261 252 240 243 248 247 250 241 241 262 294 306 306 293 292 281 302 311 323 329 315 332 351 2 6 12
212 260 203 245 222 224 221 217 221 232 250 255 271 283 279 272 271 267 261 252 249 254 248 242 239 227 235 259 286 300 293 291 278 268 280 292 296 288 280 294 308 326 340 350
231 246 216 200 207 215 214 218 223 238 243 267 276 279 274 261 259 276 280 271 250 248 242 238 240 238 239 250 264 268 270 274 271 278 287 290 291 292 284 277 277 282 300 307
223 235 230 230 226 207 202 203 218 235 249 257 268 271 279 277 277 280 276 255 238 238 245 237 238 241 245 250 260 272 266 264 264 268 279 283 276 274 273 271 272 268 275 281
231 223 226 217 210 200 202 208 213 226 244 252 266 277 278 286 293 292 267 240 245 247 253 255 232 231 242 251 256 261 263 263 263 263 267 271 272 274 270 271 272 270 268 267
231 211 209 203 207 211 213 212 208 218 223 225 250 267 281 287 292 300 284 264 257 248 253 251 246 251 253 258 260 256 259 262 257 262 266 270 271 269 270 269 270 268 268 266
222 210 207 205 200 205 209 210 211 209 222 243 258 262 270 277 279 277 273 271 283 283 272 265 265 265 264 261 256 258 261 262 262 264 264 266 266 267 268 269 269 271 269 265
236 227 216 201 197 201 196 198 205 220 240 256 259 255 255 269 274 274 285 296 289 289 282 280 279 273 269 265 259 259 257 258 261 264 266 268 268 269 270 262 264 273 271 267
239 219 213 203 186 172 168 194 208 227 243 244 241 260 269 275 277 272 279 284 286 290 290 290 282 278 278 274 272 263 248 246 250 255 258 259 262 263 266 268 260 253 261 264
218 202 181 170 176 186 186 190 198 205 209 224 253 266 269 272 266 289 291 291 292 292 293 293 283 280 277 283 284 279 274 270 268 268 267 266 264 263 265 265 265 264 266 268
187 188 185 191 195 185 188 189 194 195 208 229 249 259 272 281 284 284 290 295 298 295 285 286 284 284 284 285 286 284 281 277 272 267 265 267 267 266 266 266 267 266 265 266
172 165 165 160 178 187 192 190 189 200 200 220 257 276 285 289 293 295 294 293 295 295 293 292 289 285 282 282 281 280 279 277 274 273 274 271 268 267 268 268 269 269 269 267
Height
898 886 882 879 881 905 916 926 909 903 911 869 870 868 861 853 844 839 838 835 827 825 819 816 812 808 805 800 795 788 781 773 769 763 759 752 749 747 750 750 754 754 760 767
895 872 871 870 864 876 897 940 926 930 900 873 868 865 860 854 848 843 836 833 832 830 826 820 815 816 811 805 798 791 788 782 778 769 767 757 756 751 746 743 744 747 753 756
903 880 876 874 873 871 888 900 890 884 868 873 863 856 852 851 850 846 840 838 837 834 831 825 818 819 814 806 801 797 792 790 785 776 772 769 763 756 751 749 751 752 750 750
913 895 894 862 865 861 863 861 870 861 859 860 856 857 852 848 848 844 843 840 838 834 833 825 824 822 817 809 804 802 798 793 787 780 777 772 764 763 759 757 755 752 751 750
934 931 873 852 860 866 870 856 848 854 849 849 851 852 849 841 842 841 840 840 836 835 831 827 823 821 818 811 809 806 802 797 791 785 782 777 773 769 765 760 753 755 756 751
928 917 880 861 853 858 862 864 840 844 841 843 847 859 849 840 841 840 838 837 836 829 830 830 826 824 820 814 811 807 802 799 797 790 786 782 779 776 771 766 763 764 762 760
912 908 876 853 855 856 877 844 834 838 837 841 850 844 838 838 837 837 837 836 834 833 835 833 827 826 823 820 815 810 805 802 798 794 787 787 783 779 774 772 767 767 768 764
904 913 880 849 857 862 839 838 831 834 834 837 835 834 834 834 835 835 835 835 835 834 833 831 827 826 824 821 817 812 809 806 802 796 794 793 787 783 777 774 771 771 773 771
877 847 841 837 834 830 838 838 836 835 830 831 832 830 830 830 831 831 832 832 833 832 830 830 828 826 826 823 816 813 812 810 807 802 799 796 792 789 785 783 780 781 778 777
867 835 838 832 827 833 833 829 830 827 827 828 829 827 827 827 828 828 828 829 829 829 829 828 829 829 827 822 819 818 814 811 808 806 802 801 799 796 793 792 788 787 786 785
864 837 834 829 831 822 825 824 825 824 824 824 825 824 824 825 824 825 825 825 826 826 826 826 826 824 823 822 819 819 818 815 812 810 805 804 803 803 801 798 796 793 793 791
830 821 825 824 822 823 824 819 817 821 822 820 821 820 821 820 820 821 822 822 822 822 822 822 821 820 820 819 818 818 817 817 814 811 810 809 806 803 804 803 801 799 798 797
818 825 825 820 819 817 818 813 814 814 815 816 816 816 817 817 816 816 817 817 818 818 819 819 819 819 819 818 818 818 818 817 817 815 814 812 809 808 807 805 804 803 801 799
822 822 819 819 812 812 812 812 812 812 812 812 812 813 813 813 813 813 813 813 814 815 816 816 816 815 816 816 816 817 817 817 817 816 814 813 812 812 810 809 807 804 803 803
812 813 809 812 812 811 811 811 812 812 810 810 809 809 810 809 808 808 809 810 811 811 812 813 814 813 814 814 814 814 815 815 815 816 815 814 813 812 812 810 809 808 805 803
805 808 810 811 808 808 808 809 811 807 807 806 806 805 804 804 803 803 805 806 807 806 808 809 810 812 812 813 812 813 813 813 814 814 814 812 811 811 812 811 810 809 808 806
800 799 805 804 801 798 799 800 800 802 802 802 801 801 801 800 799 799 799 801 801 802 804 806 807 809 809 809 809 809 810 810 811 812 811 811 810 809 810 810 810 809 808 808
786 786 787 787 788 790 793 793 796 797 798 798 798 798 797 797 796 795 795 796 796 797 798 800 803 805 806 807 808 809 809 809 809 810 809 809 808 808 808 808 808 809 810 808
781 781 782 782 783 785 786 789 790 792 793 794 794 794 793 793 793 792 793 793 793 794 794 797 798 800 801 803 804 804 804 805 805 806 806 806 806 806 806 806 806 806 807 808
775 775 776 777 779 781 782 784 785 787 789 790 791 791 790 790 790 790 790 790 791 792 793 794 795 796 797 799 800 800 801 802 802 803 803 803 803 802 802 802 803 803 803 805
768 770 771 773 775 777 779 780 782 784 786 787 788 788 788 787 788 788 788 788 789 790 791 791 792 793 794 794 795 795 796 796 796 797 797 797 798 799 799 800 800 800 801 801
764 765 766 769 771 773 775 777 780 782 784 784 785 785 786 785 785 786 786 787 786 787 788 788 788 789 789 789 789 789 790 790 791 791 792 793 793 794 794 795 795 795 796 797
759 760 762 765 767 770 773 777 779 780 782 782 783 783 783 784 783 783 783 784 784 784 784 784 783 784 783 783 783 783 783 784 784 785 785 786 787 787 788 788 788 789 790 790
755 757 758 762 766 769 773 775 776 777 778 779 780 781 781 781 781 781 781 781 782 781 781 780 779 779 778 777 776 777 777 778 779 779 780 781 781 781 781 782 782 784 784 785
753 755 757 760 764 767 770 771 773 774 775 776 777 779 779 779 779 779 779 778 778 778 777 776 776 775 773 773 773 773 774 774 774 775 775 775 775 775 776 776 777 778 778 779
752 754 756 759 761 764 766 768 771 772 774 775 775 776 777 777 777 777 776 775 774 774 773 772 771 771 769 769 768 768 768 768 768 768 768 768 768 768 769 769 770 770 771 772
753 755 757 759 761 763 765 767 769 771 772 773 773 774 774 774 774 774 773 772 771 770 768 767 766 765 764 762 761 761 760 760 760 760 760 760 760 760 761 761 762 762 763 764